| time (UTC) | temp F | wind direction | speed MPH | gust MPH | rain 1hr in | rain 24hr in | rain mn in | humidity % | barometer mb |
| 20260506072540 | 51 | 0.0 | 0.0 | 0.00 | 0.00 | 0.00 | 91 | 1020.7 | |
| 20260506071541 | 51 | 0.0 | 0.0 | 0.00 | 0.00 | 0.00 | 91 | 1020.6 | |
| 20260506070601 | 52 | 0.0 | 0.0 | 0.00 | 0.00 | 0.00 | 91 | 1020.5 | |
| 20260506061541 | 54 | 268 | 0.0 | 2.0 | 0.00 | 0.00 | 0.00 | 88 | 1020.3 |
| 20260506060541 | 55 | 315 | 0.0 | 3.0 | 0.00 | 0.00 | 0.00 | 87 | 1018.6 |
| 20260506050601 | 55 | 104 | 1.0 | 3.0 | 0.00 | 0.00 | 0.00 | 87 | 1019.7 |
| 20260506044543 | 56 | 113 | 1.0 | 3.0 | 0.00 | 0.00 | 0.00 | 86 | 1019.5 |
| 20260506043602 | 56 | 133 | 1.0 | 6.0 | 0.00 | 0.00 | 0.00 | 85 | 1019.4 |
| 20260506042541 | 56 | 54 | 1.0 | 6.0 | 0.00 | 0.00 | 0.00 | 85 | 1019.3 |
| 20260506041541 | 56 | 43 | 0.0 | 3.0 | 0.00 | 0.00 | 0.00 | 84 | 1019.1 |
| 20260506040542 | 56 | 31 | 1.0 | 3.0 | 0.00 | 0.00 | 0.00 | 83 | 1019.0 |
| 20260506035541 | 57 | 30 | 1.0 | 3.0 | 0.00 | 0.00 | 0.00 | 83 | 1018.9 |
| 20260506034542 | 57 | 306 | 1.0 | 3.0 | 0.00 | 0.00 | 0.00 | 82 | 1018.8 |
| 20260506033541 | 57 | 16 | 2.0 | 3.0 | 0.00 | 0.00 | 0.00 | 81 | 1018.6 |
| 20260506032541 | 58 | 81 | 2.0 | 7.0 | 0.00 | 0.00 | 0.00 | 80 | 1018.3 |
| 20260506031543 | 58 | 83 | 2.0 | 7.0 | 0.00 | 0.00 | 0.00 | 80 | 1018.3 |
| 20260506030540 | 58 | 49 | 2.0 | 7.0 | 0.00 | 0.00 | 0.00 | 79 | 1018.3 |
| 20260506025602 | 59 | 80 | 3.0 | 7.0 | 0.00 | 0.00 | 0.00 | 79 | 1018.1 |
| 20260506024541 | 59 | 56 | 3.0 | 9.0 | 0.00 | 0.00 | 0.00 | 78 | 1018.1 |
| 20260506023603 | 60 | 74 | 1.0 | 4.0 | 0.00 | 0.00 | 0.00 | 77 | 1016.6 |
| 20260506022541 | 60 | 97 | 1.0 | 6.0 | 0.00 | 0.00 | 0.00 | 75 | 1016.4 |
| 20260506021541 | 61 | 28 | 2.0 | 6.0 | 0.00 | 0.00 | 0.00 | 74 | 1016.4 |
| 20260506020540 | 62 | 18 | 3.0 | 6.0 | 0.00 | 0.00 | 0.00 | 72 | 1017.7 |
| 20260506015541 | 62 | 232 | 2.0 | 6.0 | 0.00 | 0.00 | 0.00 | 70 | 1017.8 |
| 20260506014541 | 63 | 108 | 3.0 | 6.0 | 0.00 | 0.00 | 0.00 | 69 | 1017.8 |
| 20260506013541 | 64 | 47 | 2.0 | 8.0 | 0.00 | 0.00 | 0.00 | 68 | 1017.6 |
| 20260506012541 | 64 | 76 | 2.0 | 7.0 | 0.00 | 0.00 | 0.00 | 67 | 1017.6 |
| 20260506011541 | 65 | 33 | 3.0 | 7.0 | 0.00 | 0.00 | 0.00 | 66 | 1017.6 |
| 20260506010543 | 65 | 80 | 3.0 | 8.0 | 0.00 | 0.00 | 0.00 | 65 | 1017.5 |
| 20260506005601 | 66 | 88 | 4.0 | 7.0 | 0.00 | 0.00 | 0.00 | 64 | 1017.6 |
| 20260506004543 | 67 | 21 | 3.0 | 8.0 | 0.00 | 0.00 | 0.00 | 63 | 1017.6 |
| 20260506003541 | 68 | 64 | 3.0 | 9.0 | 0.00 | 0.00 | 0.00 | 62 | 1017.4 |
| 20260506002541 | 67 | 50 | 3.0 | 7.0 | 0.00 | 0.00 | 0.00 | 62 | 1017.4 |
| 20260506001540 | 67 | 185 | 2.0 | 6.0 | 0.00 | 0.00 | 0.00 | 62 | 1017.3 |
| 20260506000541 | 67 | 93 | 3.0 | 8.0 | 0.00 | 0.00 | 0.00 | 60 | 1017.3 |
| 20260505235601 | 67 | 67 | 3.0 | 7.0 | 0.00 | 0.00 | 0.00 | 61 | 1017.4 |
| 20260505234541 | 67 | 38 | 3.0 | 9.0 | 0.00 | 0.00 | 0.00 | 61 | 1017.2 |
| 20260505233541 | 66 | 124 | 1.0 | 7.0 | 0.00 | 0.00 | 0.00 | 62 | 1017.3 |
| 20260505232541 | 65 | 165 | 1.0 | 6.0 | 0.00 | 0.00 | 0.00 | 63 | 1017.2 |
| 20260505231541 | 66 | 26 | 2.0 | 8.0 | 0.00 | 0.00 | 0.00 | 63 | 1015.5 |
| 20260505230601 | 66 | 170 | 3.0 | 8.0 | 0.00 | 0.00 | 0.00 | 62 | 1016.9 |
| 20260505225541 | 66 | 196 | 1.0 | 8.0 | 0.00 | 0.00 | 0.00 | 62 | 1017.4 |
| 20260505224541 | 67 | 47 | 2.0 | 7.0 | 0.00 | 0.00 | 0.00 | 60 | 1017.3 |
| 20260505223601 | 68 | 152 | 1.0 | 6.0 | 0.00 | 0.00 | 0.00 | 58 | 1017.5 |
| 20260505222541 | 68 | 145 | 1.0 | 4.0 | 0.00 | 0.00 | 0.00 | 57 | 1017.6 |
| 20260505221541 | 67 | 89 | 2.0 | 8.0 | 0.00 | 0.00 | 0.00 | 58 | 1017.5 |
| 20260505220541 | 66 | 80 | 2.0 | 6.0 | 0.00 | 0.00 | 0.00 | 58 | 1017.7 |
| 20260505215541 | 67 | 91 | 2.0 | 7.0 | 0.00 | 0.00 | 0.00 | 56 | 1017.7 |
| 20260505214541 | 68 | 60 | 2.0 | 6.0 | 0.00 | 0.00 | 0.00 | 56 | 1017.7 |
| 20260505213621 | 66 | 103 | 3.0 | 8.0 | 0.00 | 0.00 | 0.00 | 59 | 1017.8 |
| 20260505212542 | 66 | 42 | 3.0 | 8.0 | 0.00 | 0.00 | 0.00 | 58 | 1017.8 |
| 20260505211601 | 67 | 102 | 2.0 | 7.0 | 0.00 | 0.00 | 0.00 | 57 | 1017.8 |
| 20260505210541 | 67 | 117 | 4.0 | 10.0 | 0.00 | 0.00 | 0.00 | 56 | 1017.8 |
| 20260505205541 | 67 | 87 | 4.0 | 8.0 | 0.00 | 0.00 | 0.00 | 55 | 1018.0 |
| 20260505204541 | 68 | 215 | 3.0 | 8.0 | 0.00 | 0.00 | 0.00 | 54 | 1017.9 |
| 20260505203541 | 68 | 342 | 2.0 | 7.0 | 0.00 | 0.00 | 0.00 | 53 | 1017.8 |
| 20260505202541 | 67 | 65 | 3.0 | 7.0 | 0.00 | 0.00 | 0.00 | 55 | 1018.0 |
| 20260505201540 | 67 | 72 | 3.0 | 9.0 | 0.00 | 0.00 | 0.00 | 55 | 1018.0 |
| 20260505200541 | 67 | 90 | 3.0 | 8.0 | 0.00 | 0.00 | 0.00 | 57 | 1016.9 |
| 20260505195542 | 67 | 60 | 3.0 | 7.0 | 0.00 | 0.00 | 0.00 | 57 | 1018.2 |
| 20260505194542 | 67 | 84 | 3.0 | 10.0 | 0.00 | 0.00 | 0.00 | 59 | 1018.3 |
| 20260505193541 | 65 | 194 | 3.0 | 7.0 | 0.00 | 0.00 | 0.00 | 63 | 1018.4 |
| 20260505192542 | 64 | 72 | 2.0 | 3.0 | 0.00 | 0.00 | 0.00 | 62 | 1018.5 |
| 20260505191602 | 63 | 101 | 3.0 | 7.0 | 0.00 | 0.00 | 0.00 | 65 | 1018.5 |
| 20260505190541 | 62 | 62 | 3.0 | 8.0 | 0.00 | 0.00 | 0.00 | 68 | 1018.5 |
| 20260505185542 | 62 | 104 | 2.0 | 4.0 | 0.00 | 0.00 | 0.00 | 69 | 1018.6 |
| 20260505184541 | 61 | 161 | 2.0 | 6.0 | 0.00 | 0.00 | 0.00 | 68 | 1018.5 |
| 20260505183541 | 61 | 195 | 3.0 | 8.0 | 0.00 | 0.00 | 0.00 | 68 | 1018.5 |
| 20260505182602 | 62 | 103 | 3.0 | 7.0 | 0.00 | 0.00 | 0.00 | 67 | 1018.5 |
| 20260505181541 | 62 | 40 | 3.0 | 8.0 | 0.00 | 0.00 | 0.00 | 66 | 1018.3 |
| 20260505180601 | 63 | 69 | 4.0 | 9.0 | 0.00 | 0.00 | 0.00 | 63 | 1018.1 |
| 20260505175602 | 63 | 138 | 2.0 | 8.0 | 0.00 | 0.00 | 0.00 | 64 | 1018.0 |
| 20260505174703 | 64 | 156 | 1.0 | 3.0 | 0.00 | 0.00 | 0.00 | 62 | 1017.9 |
| 20260505173542 | 63 | 7 | 2.0 | 4.0 | 0.00 | 0.00 | 0.00 | 63 | 1017.8 |
| 20260505172541 | 62 | 26 | 1.0 | 6.0 | 0.00 | 0.00 | 0.00 | 65 | 1017.9 |
| 20260505171542 | 63 | 94 | 2.0 | 6.0 | 0.00 | 0.00 | 0.00 | 64 | 1017.9 |
| 20260505170541 | 62 | 72 | 2.0 | 7.0 | 0.00 | 0.00 | 0.00 | 65 | 1018.0 |
| 20260505165541 | 62 | 131 | 2.0 | 6.0 | 0.00 | 0.00 | 0.00 | 65 | 1017.8 |
| 20260505164541 | 62 | 290 | 1.0 | 3.0 | 0.00 | 0.00 | 0.00 | 66 | 1016.6 |
| 20260505163541 | 62 | 192 | 1.0 | 3.0 | 0.00 | 0.00 | 0.00 | 69 | 1016.2 |
| 20260505162541 | 61 | 350 | 0.0 | 2.0 | 0.00 | 0.00 | 0.00 | 74 | 1016.3 |
| 20260505161546 | 60 | 170 | 0.0 | 2.0 | 0.00 | 0.00 | 0.00 | 77 | 1017.5 |
| 20260505160541 | 58 | 226 | 0.0 | 2.0 | 0.00 | 0.00 | 0.00 | 80 | 1017.9 |
| 20260505152601 | 55 | 277 | 0.0 | 2.0 | 0.00 | 0.00 | 0.00 | 84 | 1017.8 |
| 20260505151542 | 55 | 249 | 0.0 | 2.0 | 0.00 | 0.00 | 0.00 | 85 | 1017.7 |
| 20260505150621 | 54 | 229 | 0.0 | 2.0 | 0.00 | 0.00 | 0.00 | 86 | 1017.7 |
| 20260505140542 | 51 | 291 | 1.0 | 2.0 | 0.00 | 0.00 | 0.00 | 90 | 1017.2 |
| 20260505124541 | 52 | 252 | 0.0 | 1.0 | 0.00 | 0.00 | 0.00 | 88 | 1016.2 |
| 20260505123601 | 53 | 168 | 1.0 | 2.0 | 0.00 | 0.00 | 0.00 | 88 | 1015.3 |
| 20260505122541 | 53 | 35 | 0.0 | 3.0 | 0.00 | 0.00 | 0.00 | 88 | 1015.3 |
| 20260505121541 | 53 | 68 | 0.0 | 2.0 | 0.00 | 0.00 | 0.00 | 87 | 1015.2 |
| 20260505120541 | 53 | 142 | 1.0 | 3.0 | 0.00 | 0.00 | 0.00 | 87 | 1016.9 |
| 20260505115542 | 54 | 89 | 1.0 | 3.0 | 0.00 | 0.00 | 0.00 | 87 | 1016.7 |
| 20260505114541 | 54 | 152 | 1.0 | 3.0 | 0.00 | 0.00 | 0.00 | 86 | 1016.7 |
| 20260505113543 | 54 | 182 | 1.0 | 3.0 | 0.00 | 0.00 | 0.00 | 86 | 1016.7 |
| 20260505112602 | 54 | 80 | 2.0 | 3.0 | 0.00 | 0.00 | 0.00 | 86 | 1016.7 |
| 20260505111541 | 54 | 189 | 1.0 | 6.0 | 0.00 | 0.00 | 0.00 | 86 | 1016.6 |
| 20260505110601 | 55 | 94 | 2.0 | 4.0 | 0.00 | 0.00 | 0.00 | 86 | 1016.8 |
| 20260505101541 | 55 | 79 | 1.0 | 3.0 | 0.00 | 0.00 | 0.00 | 86 | 1016.9 |
| 20260505100541 | 55 | 93 | 1.0 | 4.0 | 0.00 | 0.00 | 0.00 | 86 | 1017.0 |
| 20260505095541 | 55 | 218 | 1.0 | 3.0 | 0.00 | 0.00 | 0.00 | 86 | 1017.0 |
| 20260505094541 | 55 | 173 | 1.0 | 2.0 | 0.00 | 0.00 | 0.00 | 86 | 1017.0 |
| 20260505093541 | 54 | 84 | 2.0 | 4.0 | 0.00 | 0.00 | 0.00 | 86 | 1016.9 |
| 20260505092541 | 54 | 147 | 0.0 | 2.0 | 0.00 | 0.00 | 0.00 | 86 | 1016.9 |
| 20260505091540 | 54 | 118 | 1.0 | 2.0 | 0.00 | 0.00 | 0.00 | 86 | 1017.0 |
| 20260505090621 | 55 | 132 | 1.0 | 6.0 | 0.00 | 0.00 | 0.00 | 86 | 1016.9 |
| 20260505085602 | 55 | 118 | 1.0 | 4.0 | 0.00 | 0.00 | 0.00 | 86 | 1017.0 |
| 20260505084541 | 55 | 71 | 1.0 | 7.0 | 0.00 | 0.00 | 0.00 | 86 | 1016.2 |
| 20260505083602 | 55 | 80 | 2.0 | 4.0 | 0.00 | 0.00 | 0.00 | 86 | 1015.7 |
| 20260505082541 | 54 | 123 | 1.0 | 7.0 | 0.00 | 0.00 | 0.00 | 86 | 1015.7 |
| 20260505081542 | 55 | 60 | 1.0 | 4.0 | 0.00 | 0.00 | 0.00 | 86 | 1016.1 |
| 20260505080541 | 54 | 50 | 2.0 | 6.0 | 0.00 | 0.00 | 0.00 | 86 | 1017.5 |
| 20260505075541 | 54 | 153 | 1.0 | 4.0 | 0.00 | 0.00 | 0.00 | 86 | 1017.4 |
| 20260505074541 | 55 | 89 | 1.0 | 3.0 | 0.00 | 0.00 | 0.00 | 85 | 1017.4 |
| 20260505073602 | 55 | 264 | 0.0 | 2.0 | 0.00 | 0.00 | 0.00 | 85 | 1017.3 |